Change the Weather History Date:

Saturday, September 28, 2013

  Actual Average (KLWD) Record (KLWD)
Temperature  
Mean Temperature 58 °F 60 °F  
Max Temperature 67 °F 71 °F 88 °F (1971)
Min Temperature 48 °F 49 °F 34 °F (1984)
Degree Days  
Heating Degree Days 8 6  
Month to date heating degree days 78  
Since 1 July heating degree days 86  
Cooling Degree Days 0 1  
Month to date cooling degree days 92  
Year to date cooling degree days 930  
Growing Degree Days 8 (Base 50)    
Moisture  
Dew Point 56 °F    
Average Humidity 84    
Maximum Humidity 91    
Minimum Humidity 66    
Precipitation  
Precipitation 0.21 in 0.09 in 2.37 in (1986)
Month to date precipitation 3.30  
Sea Level Pressure  
Sea Level Pressure 29.92 in    
Wind  
Wind Speed 9 mph (SSW)    
Max Wind Speed 18 mph    
Max Gust Speed 29 mph    
Visibility 9 miles    
Events Rain    
T = Trace of Precipitation, MM = Missing Value Source: NWS Daily Summary

Daily Weather History Graph

Daily Weather History Graph

Search for Another Location

Airport or City:

Trip Planner

Search our weather history database for the weather conditions in past years. The results will help you decide how hot, cold, wet, or windy it might be!

Date:

Astronomy

Sep. 28, 2013 Rise Set
Actual Time 7:08 AM CDT 7:01 PM CDT
Civil Twilight 6:41 AM CDT 7:28 PM CDT
Nautical Twilight 6:09 AM CDT 8:00 PM CDT
Astronomical Twilight 5:36 AM CDT 8:32 PM CDT
Moon 12:54 AM CDT (9/28) 3:23 PM CDT (9/28)
Length of Visible Light 12h 47m
Length of Day
11h 52m
Waning Crescent, 36% of the Moon is Illuminated
Sep 28
Waning Crescent
Oct 4
New
Oct 11
First Quarter
Oct 18
Full
Oct 26
Last Quarter

Hourly Weather History & Observations

Time (CDT) Temp. Dew Point Humidity Pressure Visibility Wind Dir Wind Speed Gust Speed Precip Events Conditions
12:15 AM 66.6 °F 59.7 °F 79% 29.89 in 10.0 mi SE 8.1 mph - N/A   Clear
12:35 AM 66.4 °F 59.9 °F 80% 29.88 in 10.0 mi SE 8.1 mph - N/A   Clear
12:55 AM 65.8 °F 59.9 °F 81% 29.87 in 10.0 mi SE 8.1 mph - N/A   Clear
1:15 AM 65.1 °F 59.9 °F 83% 29.86 in 10.0 mi SE 5.8 mph - N/A   Clear
1:35 AM 65.3 °F 60.1 °F 83% 29.86 in 10.0 mi SE 6.9 mph - N/A   Clear
1:55 AM 65.3 °F 60.1 °F 83% 29.86 in 10.0 mi SE 9.2 mph - N/A   Clear
2:15 AM 64.6 °F 59.9 °F 85% 29.86 in 10.0 mi SE 8.1 mph - N/A   Clear
2:35 AM 64.6 °F 60.1 °F 85% 29.85 in 10.0 mi SE 9.2 mph - N/A   Clear
2:55 AM 64.6 °F 60.3 °F 86% 29.85 in 10.0 mi SE 6.9 mph - N/A   Clear
3:15 AM 64.8 °F 60.4 °F 86% 29.85 in 10.0 mi SE 8.1 mph - N/A   Clear
3:35 AM 65.7 °F 60.8 °F 84% 29.84 in 10.0 mi SSE 9.2 mph - N/A   Clear
3:55 AM 65.7 °F 60.8 °F 84% 29.84 in 10.0 mi SSE 9.2 mph - N/A   Clear
4:15 AM 65.8 °F 60.8 °F 84% 29.84 in 10.0 mi SE 9.2 mph - N/A   Clear
4:35 AM 66.2 °F 60.8 °F 83% 29.84 in 10.0 mi SSE 10.4 mph - N/A   Mostly Cloudy
4:55 AM 66.6 °F 60.8 °F 82% 29.83 in 10.0 mi SE 10.4 mph 16.1 mph N/A   Overcast
5:15 AM 66.2 °F 60.4 °F 82% 29.83 in 10.0 mi SE 9.2 mph - N/A   Scattered Clouds
5:35 AM 66.2 °F 60.3 °F 81% 29.83 in 10.0 mi SE 10.4 mph 18.4 mph N/A   Scattered Clouds
5:55 AM 66.4 °F 60.1 °F 80% 29.83 in 10.0 mi SSE 11.5 mph 18.4 mph N/A   Mostly Cloudy
6:15 AM 66.7 °F 60.1 °F 79% 29.82 in 10.0 mi SE 11.5 mph 17.3 mph N/A   Mostly Cloudy
6:35 AM 66.7 °F 60.1 °F 79% 29.82 in 10.0 mi SSE 11.5 mph - N/A   Mostly Cloudy
6:55 AM 67.3 °F 60.1 °F 78% 29.83 in 10.0 mi SSE 10.4 mph 16.1 mph N/A   Mostly Cloudy
7:15 AM 65.8 °F 61.0 °F 84% 29.85 in 3.0 mi SSE 12.7 mph 18.4 mph 0.10 in Rain Heavy Rain
7:35 AM 64.9 °F 61.3 °F 88% 29.84 in 7.0 mi SSE 10.4 mph 17.3 mph 0.15 in Rain Light Rain
7:55 AM 64.6 °F 61.7 °F 90% 29.84 in 5.0 mi SSE 10.4 mph 16.1 mph 0.19 in Rain Light Rain
8:15 AM 64.8 °F 61.9 °F 90% 29.84 in 10.0 mi SSE 9.2 mph - N/A   Overcast
8:35 AM 64.9 °F 62.2 °F 91% 29.84 in 10.0 mi SSE 10.4 mph 16.1 mph N/A   Overcast
8:55 AM 65.3 °F 62.6 °F 91% 29.83 in 10.0 mi SSE 11.5 mph 16.1 mph N/A   Overcast
9:15 AM 65.8 °F 62.6 °F 89% 29.83 in 10.0 mi SSE 13.8 mph 18.4 mph N/A   Overcast
9:35 AM 66.6 °F 62.6 °F 87% 29.83 in 10.0 mi SSE 13.8 mph 19.6 mph N/A   Mostly Cloudy
9:55 AM 66.7 °F 62.1 °F 85% 29.84 in 10.0 mi SSE 15.0 mph 20.7 mph N/A   Overcast
10:15 AM 67.1 °F 62.1 °F 84% 29.84 in 10.0 mi South 10.4 mph 20.7 mph 0.01 in Rain Light Rain
10:35 AM 66.4 °F 62.6 °F 88% 29.84 in 7.0 mi SSE 13.8 mph 19.6 mph 0.01 in Rain Light Rain
10:55 AM 65.8 °F 62.6 °F 89% 29.83 in 7.0 mi SSE 11.5 mph 18.4 mph 0.01 in Rain Light Rain
11:15 AM 66.2 °F 63.0 °F 89% 29.85 in 7.0 mi South 11.5 mph 18.4 mph N/A Rain Light Rain
11:35 AM 66.2 °F 63.1 °F 90% 29.86 in 10.0 mi South 13.8 mph 20.7 mph N/A   Overcast
11:55 AM 66.2 °F 63.0 °F 89% 29.86 in 10.0 mi South 13.8 mph 19.6 mph N/A   Overcast
12:15 PM 59.0 °F 55.6 °F 88% 29.89 in 2.5 mi West 18.4 mph 28.8 mph 0.01 in Rain Rain
12:35 PM 56.8 °F 54.3 °F 91% 29.91 in 4.0 mi WNW 13.8 mph 21.9 mph 0.01 in   Overcast
12:55 PM 56.1 °F 53.6 °F 91% 29.91 in 2.5 mi WNW 17.3 mph 25.3 mph 0.01 in   Overcast
1:15 PM 55.8 °F 53.1 °F 91% 29.91 in 10.0 mi WNW 11.5 mph - N/A   Overcast
1:35 PM 55.6 °F 52.2 °F 88% 29.92 in 10.0 mi NW 15.0 mph 19.6 mph N/A   Overcast
1:55 PM 55.4 °F 52.0 °F 88% 29.92 in 7.0 mi WNW 9.2 mph - N/A Rain Light Rain
2:15 PM 55.9 °F 53.1 °F 90% 29.93 in 7.0 mi WNW 10.4 mph - N/A   Overcast
2:35 PM 56.3 °F 53.4 °F 90% 29.94 in 10.0 mi WNW 11.5 mph - N/A   Overcast
2:55 PM 57.2 °F 53.2 °F 87% 29.94 in 10.0 mi WNW 11.5 mph - N/A   Overcast
3:15 PM 58.1 °F 53.1 °F 83% 29.95 in 10.0 mi WNW 9.2 mph 18.4 mph N/A   Overcast
3:35 PM 58.5 °F 52.5 °F 81% 29.95 in 10.0 mi WNW 10.4 mph - N/A   Overcast
3:55 PM 59.2 °F 52.7 °F 79% 29.96 in 10.0 mi West 10.4 mph - N/A   Mostly Cloudy
4:15 PM 59.7 °F 52.2 °F 76% 29.96 in 10.0 mi WNW 11.5 mph 17.3 mph N/A   Mostly Cloudy
4:35 PM 59.5 °F 50.9 °F 73% 29.96 in 10.0 mi WNW 11.5 mph - N/A   Mostly Cloudy
4:55 PM 59.9 °F 50.7 °F 72% 29.97 in 10.0 mi West 6.9 mph - N/A   Scattered Clouds
5:15 PM 61.5 °F 51.3 °F 69% 29.98 in 10.0 mi WNW 6.9 mph - N/A   Scattered Clouds
5:35 PM 62.4 °F 51.1 °F 66% 29.99 in 10.0 mi West 8.1 mph - N/A   Mostly Cloudy
5:55 PM 61.7 °F 50.5 °F 67% 29.99 in 10.0 mi WNW 6.9 mph - N/A   Scattered Clouds
6:15 PM 61.5 °F 51.1 °F 69% 29.99 in 10.0 mi West 4.6 mph - N/A   Scattered Clouds
6:35 PM 59.9 °F 50.5 °F 71% 30.00 in 10.0 mi WNW 3.5 mph - N/A   Scattered Clouds
6:55 PM 57.6 °F 50.5 °F 77% 30.00 in 10.0 mi Calm Calm - N/A   Clear
7:15 PM 56.5 °F 50.0 °F 79% 30.00 in 10.0 mi Calm Calm - N/A   Clear
7:35 PM 56.1 °F 49.8 °F 79% 30.00 in 10.0 mi Calm Calm - N/A   Clear
7:55 PM 56.5 °F 50.2 °F 79% 30.01 in 10.0 mi Calm Calm - N/A   Clear
8:15 PM 51.6 °F 47.7 °F 86% 30.01 in 10.0 mi Calm Calm - N/A   Clear
8:35 PM 51.3 °F 48.4 °F 90% 30.02 in 10.0 mi SW 3.5 mph - N/A   Clear
8:55 PM 52.3 °F 49.5 °F 90% 30.03 in 10.0 mi WSW 4.6 mph - N/A   Clear
9:15 PM 50.9 °F 48.4 °F 91% 30.03 in 10.0 mi WSW 4.6 mph - N/A   Clear
9:35 PM 50.5 °F 47.7 °F 90% 30.04 in 10.0 mi West 4.6 mph - N/A   Clear
9:55 PM 50.4 °F 47.7 °F 90% 30.04 in 10.0 mi West 3.5 mph - N/A   Clear
10:15 PM 50.9 °F 47.7 °F 89% 30.05 in 10.0 mi Calm Calm - N/A   Clear
10:35 PM 49.5 °F 46.4 °F 89% 30.05 in 10.0 mi WSW 3.5 mph - N/A   Clear
10:55 PM 49.1 °F 46.2 °F 90% 30.06 in 10.0 mi West 3.5 mph - N/A   Clear
11:15 PM 48.4 °F 45.1 °F 89% 30.06 in 10.0 mi West 5.8 mph - N/A   Clear
11:35 PM 48.4 °F 45.3 °F 89% 30.06 in 10.0 mi West 3.5 mph - N/A   Clear
11:55 PM 48.7 °F 45.1 °F 87% 30.07 in 10.0 mi West 3.5 mph - N/A   Clear